Regional Weather Roundup
Issued by NWS

Home | Current Version | Previous Version | Graphics & Text | Print | Product List | Glossary On
Versions: 1 2 3 4 5 6 7 8 9 10 11 12 13 14 15 16 17 18 19 20 21 22 23 24 25 26 27 28 29 30 31 32 33 34 35 36 37 38 39 40 41 42 43 44 45 46 47 48 49 50
000
ASUS43 KIND 212309
RWRIN

WEATHER ROUNDUP FOR INDIANA
NATIONAL WEATHER SERVICE INDIANAPOLIS IN
600 PM EST TUE FEB 21 2017

NOTE: "FAIR" INDICATES FEW OR NO CLOUDS BELOW 12,000 FEET WITH NO
SIGNIFICANT WEATHER AND/OR OBSTRUCTIONS TO VISIBILITY.

* - STATION DOES NOT REPORT WEATHER SUCH AS PRECIPITATION OR FOG.

+ - STATION NOT QUALITY CONTROLLED BY THE NATIONAL WEATHER SERVICE.
    USE DATA WITH CAUTION...ESPECIALLY DEWPOINT AND RELATIVE
    HUMIDITY OBSERVATIONS.

INZ001>003-010>013-019-020-220000-
NORTHWEST INDIANA

CITY           SKY/WX    TMP DP  RH WIND       PRES   REMARKS
GARY /AIRPORT/ MOCLDY    66  54  63 CALM      29.91S
KNOX *+        PTCLDY    59  34  38 S3        29.92S
LA PORTE +     MOCLDY    59  53  78 S3        29.92S
MICHIGAN CITY+ CLOUDY    61  52  72 N3        29.92S
MONTICELLO +   CLOUDY    60  51  72 CALM      29.93R
RENSSELAER +   CLOUDY    63  55  77 SE3       29.92S
VALPARAISO     MOCLDY    63  54  72 S5        29.92S

$$

LMZ046-743>745-220000-
SOUTHERN LAKE MICHIGAN

STATION/POSITION TIME  TEMP    WIND        PRES    WAVE
                       AIR SEA DIR/SP/G            HT
                 (UTC) (F)     (DEG/KT/KT) (MB)    (FT)
BURNS HARBOR     2240   49      80/  6/  6 1013.5S
MICHIGAN CITY    2240   48      30/  6/  7   N/A

$$

INZ004-005-014>016-021>024-220000-
NORTH CENTRAL INDIANA

CITY           SKY/WX    TMP DP  RH WIND       PRES   REMARKS
ELKHART        PTCLDY    61  52  72 S3        29.93S
GOSHEN         MOCLDY    59  50  72 S3        29.93S
LOGANSPORT +   CLOUDY    57  50  77 CALM      29.94R
PERU/GRISSOM   MOCLDY    58  54  87 CALM      29.92R
ROCHESTER +    MOCLDY    61  52  72 CALM      29.93S
SOUTH BEND     MOCLDY    59  52  77 S5        29.94S
WARSAW +       PTCLDY    59  50  72 CALM      29.93S

$$

INZ006>009-017-018-025>027-220000-
NORTHEAST INDIANA

CITY           SKY/WX    TMP DP  RH WIND       PRES   REMARKS
ANGOLA *+      CLOUDY    57  52  82 CALM      29.94S
AUBURN +       MOCLDY    55  50  82 CALM      29.95R
FORT WAYNE     CLOUDY    58  49  72 CALM      29.94S
HUNTINGTON +   CLOUDY    57  48  71 CALM      29.93S
KENDALLVILLE + PTCLDY    58  50  75 CALM      29.94S

$$

INZ028-029-035-036-043>045-051>053-220000-
WEST CENTRAL INDIANA

CITY           SKY/WX    TMP DP  RH WIND       PRES   REMARKS
GREENCASTLE +  CLOUDY    59  50  72 S6        29.94R
LAFAYETTE      CLOUDY    60  51  72 CALM      29.92S
TERRE HAUTE    CLOUDY    60  52  74 S9        29.93S

$$

INZ030>032-037>040-046>048-054>057-064-065-220000-
CENTRAL INDIANA

CITY           SKY/WX    TMP DP  RH WIND       PRES   REMARKS
CP ATTERBURY + CLOUDY    57  52  82 S5        29.96S
COLUMBUS       CLOUDY    55  55 100 S67       29.97R
FISHERS *+     MOCLDY    59  52  77 S7        29.93
FRANKFORT +    CLOUDY    61  54  76 CALM      29.94S
GREENWOOD *+   CLOUDY    61  52  73 S7        29.95S
INDIANAPOLIS   CLOUDY    62  49  62 S7        29.93S
-EAGLE CREEK   CLOUDY    63  47  55 S6        29.92S
KOKOMO +       CLOUDY    58  52  80 SE6       29.94R
MARION +       CLOUDY    58  49  70 S3        29.94R
MT COMFORT *+  CLOUDY    59  48  67 S8        29.94S
SHELBYVILLE    CLOUDY    60  51  72 S8        29.94S
ZIONSVILLE +   CLOUDY    60  48  65 S5        29.94R

$$

INZ033-034-041-042-049-050-058-059-220000-
EAST CENTRAL INDIANA

CITY           SKY/WX    TMP DP  RH WIND       PRES   REMARKS
MUNCIE         CLOUDY    63  48  58 S6        29.93F

$$

INZ060-061-067>069-081>083-085>088-220000-
SOUTHWEST INDIANA

CITY           SKY/WX    TMP DP  RH WIND       PRES   REMARKS
EVANSVILLE     CLOUDY    64  55  72 SE5       29.93R
HUNTINGBURG *+ CLOUDY    64  54  68 SE5       29.93R
WASHINGTON +   DRIZZLE   57  55  94 E6        29.92S

$$

INZ062-063-066-070>080-084-089>092-220000-
SOUTH CENTRAL AND SOUTHEAST INDIANA

CITY           SKY/WX    TMP DP  RH WIND       PRES   REMARKS
BEDFORD +      LGT RAIN N/A N/A N/A E3        29.94F
BLOOMINGTON    CLOUDY    57  53  86 SE6       29.95S
MADISON *+     CLOUDY    57  54  88 CALM      30.00R
SEYMOUR +      LGT RAIN  57  55  94 E5        29.97R

$$





USA.gov is the U.S. government's official web portal to all federal, state and local government web resources and services.